Location: Plainartige
(45.6866°N, 1.7993°E)
Time: 13:41:18
(UTC+00:00)

SL-4 R/B - Pass Details

Date: 03 March 2021
Orbit: 428 x 663 km, 51.6° (Epoch: 11 April)

Event Time Altitude Azimuth Distance (km) Brightness Sun altitude
Rises 19:50:08 0° 298° (WNW) 2,459 6.7 -22.9°
Reaches altitude 10° 19:52:20 10° 302° (WNW) 1,562 5.3 -23.3°
Enters shadow 19:54:48 40° 324° (NW) 652 2.7 -23.7°
